• In Uzbekistan
  • List of Countries
  • For 7 days
  • Water Temperature
  • Weather Map
  • Weather Widgets
  • user-avatar
    Login

    Hourly Weather Kazimierzew

    Today, 7 December, Saturday

    Time Temperature Precipitation Wind Pressure Humidity
    00:00 -2°C° 0 mm 7 mps 744 mmHg 52%
    01:00 -2°C° 0 mm 6 mps 744 mmHg 53%
    02:00 -1°C° 0 mm 7 mps 743 mmHg 53%
    03:00 0°C° 0 mm 7 mps 743 mmHg 53%
    04:00 0°C° 0 mm 7 mps 742 mmHg 53%
    05:00 0°C° 0.1 mm 7 mps 742 mmHg 59%
    06:00 0°C° 0.1 mm 8 mps 742 mmHg 64%
    07:00 0°C° 0 mm 8 mps 742 mmHg 65%
    08:00 +1°C° 0.2 mm 8 mps 742 mmHg 70%
    09:00 +1°C° 0.2 mm 8 mps 742 mmHg 75%
    10:00 +2°C° 0.2 mm 8 mps 742 mmHg 80%
    11:00 +4°C° 0 mm 8 mps 742 mmHg 81%
    12:00 +4°C° 0 mm 8 mps 741 mmHg 83%
    13:00 +4°C° 0 mm 7 mps 741 mmHg 85%
    14:00 +4°C° 0.1 mm 8 mps 742 mmHg 85%
    15:00 +5°C° 0.1 mm 8 mps 742 mmHg 84%
    16:00 +5°C° 0.1 mm 8 mps 742 mmHg 84%
    17:00 +5°C° 0.3 mm 8 mps 743 mmHg 85%
    18:00 +5°C° 0.3 mm 7 mps 743 mmHg 87%
    19:00 +5°C° 0.3 mm 7 mps 744 mmHg 89%
    20:00 +5°C° 0.3 mm 7 mps 744 mmHg 88%
    21:00 +5°C° 0.3 mm 7 mps 744 mmHg 87%
    22:00 +5°C° 0.3 mm 7 mps 745 mmHg 86%
    23:00 +5°C° 0.1 mm 7 mps 745 mmHg 86%

    Tomorrow, 8 December, Sunday

    Time Temperature Precipitation Wind Pressure Humidity
    00:00 +5°C° 0.1 mm 7 mps 745 mmHg 86%
    01:00 +5°C° 0.1 mm 7 mps 746 mmHg 85%
    02:00 +4°C° 0 mm 6 mps 745 mmHg 85%
    03:00 +4°C° 0 mm 6 mps 745 mmHg 85%
    04:00 +4°C° 0 mm 6 mps 745 mmHg 85%
    05:00 +4°C° 0 mm 6 mps 745 mmHg 84%
    06:00 +4°C° 0 mm 6 mps 745 mmHg 83%
    07:00 +3°C° 0 mm 6 mps 745 mmHg 83%
    08:00 +4°C° 0 mm 6 mps 745 mmHg 80%
    09:00 +4°C° 0 mm 7 mps 745 mmHg 78%
    10:00 +4°C° 0 mm 7 mps 744 mmHg 76%
    11:00 +4°C° 0 mm 7 mps 743 mmHg 73%
    12:00 +5°C° 0 mm 7 mps 743 mmHg 71%
    13:00 +5°C° 0 mm 8 mps 742 mmHg 68%
    14:00 +5°C° 0 mm 8 mps 742 mmHg 69%
    15:00 +5°C° 0 mm 8 mps 741 mmHg 69%
    16:00 +5°C° 0 mm 8 mps 741 mmHg 70%
    17:00 +5°C° 0 mm 8 mps 740 mmHg 71%
    18:00 +6°C° 0 mm 8 mps 740 mmHg 72%
    19:00 +6°C° 0 mm 9 mps 740 mmHg 73%
    20:00 +6°C° 0.5 mm 8 mps 739 mmHg 76%
    21:00 +6°C° 0.5 mm 8 mps 739 mmHg 80%
    22:00 +6°C° 0.5 mm 8 mps 739 mmHg 84%
    23:00 +6°C° 0 mm 8 mps 739 mmHg 82%

    Day after tomorrow, 9 December, Monday

    Time Temperature Precipitation Wind Pressure Humidity
    00:00 +6°C° 0 mm 7 mps 739 mmHg 80%
    01:00 +6°C° 0 mm 7 mps 738 mmHg 78%
    02:00 +6°C° 0.5 mm 7 mps 738 mmHg 81%
    03:00 +6°C° 0.5 mm 7 mps 738 mmHg 84%
    04:00 +6°C° 0.5 mm 7 mps 737 mmHg 87%
    05:00 +5°C° 1.1 mm 6 mps 737 mmHg 86%
    06:00 +6°C° 1.1 mm 5 mps 738 mmHg 85%
    07:00 +6°C° 1.1 mm 5 mps 738 mmHg 84%
    08:00 +6°C° 0 mm 5 mps 738 mmHg 81%
    09:00 +7°C° 0 mm 5 mps 738 mmHg 77%
    10:00 +7°C° 0 mm 6 mps 738 mmHg 74%
    11:00 +7°C° 0 mm 6 mps 738 mmHg 69%
    12:00 +7°C° 0 mm 6 mps 738 mmHg 65%
    13:00 +8°C° 0 mm 6 mps 738 mmHg 61%
    14:00 +7°C° 0 mm 6 mps 738 mmHg 62%
    15:00 +7°C° 0 mm 6 mps 738 mmHg 63%
    16:00 +5°C° 0 mm 6 mps 738 mmHg 65%
    17:00 +5°C° 0 mm 7 mps 738 mmHg 67%
    18:00 +5°C° 0 mm 8 mps 738 mmHg 68%
    19:00 +5°C° 0 mm 9 mps 738 mmHg 70%
    20:00 +5°C° 0.1 mm 9 mps 739 mmHg 73%
    21:00 +5°C° 0.1 mm 8 mps 739 mmHg 76%
    22:00 +4°C° 0.1 mm 8 mps 739 mmHg 79%
    23:00 +4°C° 0 mm 8 mps 740 mmHg 80%

    10 December, Tuesday

    Time Temperature Precipitation Wind Pressure Humidity
    00:00 +4°C° 0 mm 7 mps 741 mmHg 81%
    01:00 +3°C° 0 mm 6 mps 741 mmHg 82%
    02:00 +3°C° 0 mm 7 mps 742 mmHg 79%
    03:00 +2°C° 0 mm 7 mps 743 mmHg 77%
    04:00 +2°C° 0 mm 7 mps 743 mmHg 74%
    05:00 +2°C° 0 mm 7 mps 744 mmHg 76%
    06:00 +1°C° 0 mm 8 mps 745 mmHg 78%
    07:00 0°C° 0 mm 8 mps 745 mmHg 80%
    08:00 +2°C° 0.4 mm 7 mps 746 mmHg 83%
    09:00 +2°C° 0.4 mm 7 mps 747 mmHg 85%
    10:00 +3°C° 0.4 mm 7 mps 748 mmHg 88%
    11:00 +3°C° 0.3 mm 7 mps 748 mmHg 86%
    12:00 +3°C° 0.3 mm 7 mps 749 mmHg 84%
    13:00 +3°C° 0.3 mm 7 mps 750 mmHg 83%
    14:00 +2°C° 0 mm 7 mps 751 mmHg 84%
    15:00 +2°C° 0 mm 6 mps 751 mmHg 86%
    16:00 +2°C° 0 mm 6 mps 752 mmHg 87%
    17:00 +2°C° 0.2 mm 5 mps 753 mmHg 86%
    18:00 +3°C° 0.2 mm 4 mps 754 mmHg 85%
    19:00 +3°C° 0.2 mm 4 mps 755 mmHg 83%
    20:00 +2°C° 0 mm 3 mps 755 mmHg 82%
    21:00 +3°C° 0 mm 2 mps 755 mmHg 81%
    22:00 +2°C° 0 mm 2 mps 755 mmHg 80%
    23:00 +2°C° 0 mm 2 mps 755 mmHg 81%

    11 December, Wednesday

    Time Temperature Precipitation Wind Pressure Humidity
    00:00 +2°C° 0 mm 1 mps 755 mmHg 81%
    01:00 +2°C° 0 mm 1 mps 755 mmHg 82%
    02:00 +1°C° 0 mm 1 mps 755 mmHg 81%
    03:00 -1°C° 0 mm 2 mps 754 mmHg 81%
    04:00 -1°C° 0 mm 2 mps 754 mmHg 81%
    05:00 -1°C° 0 mm 3 mps 754 mmHg 81%
    06:00 -1°C° 0 mm 3 mps 753 mmHg 80%
    07:00 -2°C° 0 mm 4 mps 753 mmHg 80%
    08:00 -1°C° 0 mm 5 mps 753 mmHg 77%
    09:00 0°C° 0 mm 5 mps 752 mmHg 73%
    10:00 -1°C° 0 mm 6 mps 752 mmHg 70%
    11:00 +1°C° 0 mm 6 mps 751 mmHg 68%
    12:00 +1°C° 0 mm 6 mps 751 mmHg 65%
    13:00 +2°C° 0 mm 6 mps 750 mmHg 63%
    14:00 +1°C° 0 mm 5 mps 750 mmHg 65%
    15:00 0°C° 0 mm 4 mps 750 mmHg 66%
    16:00 0°C° 0 mm 4 mps 749 mmHg 68%
    17:00 -1°C° 0 mm 4 mps 749 mmHg 69%
    18:00 -1°C° 0 mm 4 mps 749 mmHg 70%
    19:00 -1°C° 0 mm 4 mps 749 mmHg 71%
    20:00 -1°C° 0 mm 4 mps 749 mmHg 72%
    21:00 -2°C° 0 mm 4 mps 749 mmHg 72%
    22:00 -2°C° 0 mm 4 mps 749 mmHg 73%
    23:00 -2°C° 0 mm 4 mps 748 mmHg 73%

    12 December, Thursday

    Time Temperature Precipitation Wind Pressure Humidity
    00:00 -2°C° 0 mm 4 mps 748 mmHg 74%
    01:00 -2°C° 0 mm 4 mps 748 mmHg 75%
    02:00 -2°C° 0 mm 4 mps 747 mmHg 75%
    03:00 -2°C° 0 mm 4 mps 747 mmHg 76%
    04:00 -2°C° 0 mm 4 mps 747 mmHg 76%
    05:00 -1°C° 0 mm 3 mps 746 mmHg 77%
    06:00 -1°C° 0 mm 3 mps 746 mmHg 78%
    07:00 -1°C° 0 mm 3 mps 746 mmHg 79%
    08:00 0°C° 0 mm 3 mps 746 mmHg 77%
    09:00 -1°C° 0 mm 4 mps 746 mmHg 75%
    10:00 0°C° 0 mm 4 mps 746 mmHg 73%
    11:00 0°C° 0 mm 4 mps 745 mmHg 72%
    12:00 0°C° 0 mm 4 mps 745 mmHg 71%
    13:00 0°C° 0 mm 4 mps 745 mmHg 69%
    14:00 0°C° 0.1 mm 4 mps 745 mmHg 78%
    15:00 0°C° 0.1 mm 3 mps 745 mmHg 86%
    16:00 0°C° 0.1 mm 3 mps 745 mmHg 95%
    17:00 0°C° 0 mm 3 mps 745 mmHg 95%
    18:00 0°C° 0 mm 3 mps 745 mmHg 96%
    19:00 0°C° 0 mm 3 mps 745 mmHg 97%
    20:00 0°C° 0 mm 3 mps 745 mmHg 96%
    21:00 0°C° 0 mm 3 mps 745 mmHg 96%
    22:00 -1°C° 0 mm 4 mps 745 mmHg 96%
    23:00 0°C° 0 mm 3 mps 745 mmHg 95%
    Show more